GFSGL_700_temp_132.txt.gz
Temp
9 9 9 9 9 9 9 9 9 8 8 9 9 9 9 9 8 8 8 9 9 9 9 8 8 8 7 8 8 8 8 8 8 9 9 9 9 8 8 8 9 9 9
9 9 8 8 8 8 8 8 8 8 8 8 8 9 8 9 8 8 8 8 8 9 9 9 8 9 7 8 7 8 8 8 8 9 9 9 9 8 8 8 8 9 9
8 8 8 8 7 8 8 7 7 7 6 6 6 7 7 8 8 8 8 7 7 8 9 9 8 7 8 7 8 7 8 9 8 9 9 9 9 8 8 8 8 9 10
8 8 8 7 7 7 6 6 5 5 5 5 5 6 7 7 8 8 8 8 7 7 8 8 8 9 8 8 8 9 9 10 9 8 9 9 9 9 8 8 8 9 9
8 7 7 7 7 6 5 4 4 4 4 6 6 6 7 7 7 7 8 8 8 6 7 7 8 8 8 9 7 8 7 9 9 9 9 9 9 9 9 8 9 9 9
7 7 7 7 6 5 3 3 4 4 4 4 5 6 6 7 6 6 7 8 8 7 7 8 8 8 8 8 8 7 7 7 9 8 9 10 9 9 9 8 9 9 9
7 7 6 6 5 3 3 3 3 3 4 4 5 5 6 6 6 6 6 6 6 7 7 7 7 8 8 7 6 5 6 6 7 8 9 10 9 9 8 8 8 9 9
7 6 6 5 3 2 3 3 3 3 3 4 5 5 6 6 6 6 6 6 6 7 8 8 8 8 8 7 6 6 7 6 6 8 9 9 9 9 8 8 8 9 9
6 5 5 3 2 3 3 3 2 3 2 4 5 5 5 6 6 6 6 6 7 8 7 7 7 8 8 6 6 5 6 6 6 7 8 8 8 9 8 8 9 9 9
6 5 3 2 2 2 2 3 2 3 1 4 4 5 6 6 6 6 6 7 7 7 7 7 7 7 7 6 7 6 6 6 6 6 7 8 8 8 8 7 8 9 8
4 4 3 2 2 1 2 2 2 1 1 3 4 5 5 5 6 6 6 6 6 6 6 7 7 7 7 7 7 6 6 7 7 7 7 7 8 8 8 8 8 8 8
4 3 2 2 2 1 1 1 2 2 2 1 4 5 5 5 5 6 6 6 6 6 6 6 7 7 7 7 6 7 6 6 7 7 7 8 8 8 8 8 8 7 8
3 2 1 1 1 1 1 1 0 0 1 1 1 3 4 5 5 5 5 6 5 6 6 6 6 6 6 6 7 6 7 7 7 7 8 7 8 8 7 6 6 6 7
3 2 1 1 2 0 1 1 1 1 1 1 1 1 2 4 4 5 5 5 5 5 5 5 5 5 6 6 6 6 6 7 7 7 7 7 7 8 8 6 6 6 6
3 2 1 1 1 1 1 1 1 0 1 -1 -0 1 2 2 2 1 4 5 5 5 5 5 5 5 5 5 5 6 5 6 6 6 6 6 6 7 7 6 5 5 5
3 2 2 2 2 2 1 0 0 0 -0 0 -0 1 0 1 0 2 4 4 4 4 4 4 4 4 5 4 4 2 3 5 5 5 5 5 5 5 5 5 5 5 4
2 2 2 2 2 1 1 0 0 0 0 -1 -1 -0 2 1 1 1 1 3 4 4 4 4 4 4 4 4 4 3 4 3 3 3 3 4 4 4 4 4 4 3 4
2 2 2 0 0 1 1 1 0 -0 -0 -0 -0 -0 -0 1 1 1 1 1 2 2 2 3 3 3 3 3 3 3 3 4 4 3 4 4 4 4 4 4 4 4 4
2 2 1 0 0 0 0 0 -0 -0 -0 -0 -0 -0 -0 -0 -0 -0 0 1 0 0 1 1 1 1 1 1 2 2 2 2 2 2 3 3 3 3 3 3 3 3 4
1 0 0 -0 0 0 0 -0 -0 -0 -0 -0 -0 -0 -0 -1 -0 -0 -0 -1 -1 -1 -1 -0 -0 -0 -1 -0 -0 0 0 0 1 1 1 1 2 2 2 2 2 2 3
0 0 0 1 -0 0 -0 -0 -0 -0 -0 0 -0 -0 -0 -0 -0 -0 -1 -1 -1 -1 -1 -1 -1 -1 -1 -0 0 -0 0 -0 -0 -0 -0 -0 -0 0 -0 -0 0 0 1
0 0 0 0 -0 -0 -1 -1 -1 -1 -1 -1 -1 -1 -1 -1 -1 -1 -0 -0 -0 -0 -0 -0 -0 -0 -1 -1 -1 -0 0 -0 -0 0 -0 0 -1 -0 -1 -1 -1 -1 -0
-0 0 0 -0 -1 -1 -1 -1 -1 -1 -1 -1 -1 -1 -0 -0 0 0 1 1 1 1 1 1 1 1 1 1 0 0 -0 -0 -1 -1 -1 -1 -1 -1 -1 -1 -1 -1 -1
0 -0 -0 -1 -1 -2 -2 -2 -2 -2 -1 -1 -0 -0 0 1 1 1 1 1 1 1 1 1 1 1 1 1 1 1 0 0 0 0 0 -1 -3 -2 -1 -2 -2 -1 -1
-1 -1 -2 -2 -2 -2 -1 -1 -0 -0 -0 0 0 1 1 1 1 1 1 1 1 1 1 1 1 1 1 1 0 0 -0 -0 -0 -1 -1 -1 -1 -1 -1 -1 -1 -1 -2
-1 -1 -1 -1 -1 -0 0 0 0 1 1 1 1 1 1 1 1 1 1 1 1 1 1 1 1 1 1 0 0 -0 -0 -0 -1 -1 -1 -1 -1 -1 -1 -1 -1 -1 -1

GFSGL_700_temp_138.txt.gz
Temp
9 9 9 9 9 9 9 9 8 8 8 8 8 8 8 8 8 8 8 8 7 8 8 8 8 8 8 9 9 8 8 9 9 10 10 9 9 10 10 9 9 9 9
9 9 9 9 9 9 8 8 8 8 8 8 8 8 7 7 6 6 7 7 7 7 7 7 8 8 8 8 9 9 9 9 8 9 8 9 9 9 9 9 9 9 9
9 9 9 9 8 8 8 8 7 7 7 7 7 6 6 5 5 5 6 6 7 6 7 7 8 8 7 8 8 9 9 9 8 8 10 9 9 8 9 9 9 9 9
9 9 9 8 7 7 7 7 7 6 6 6 5 5 5 5 6 6 6 6 6 6 6 7 7 8 8 7 8 8 8 8 8 9 10 8 8 7 8 7 9 9 9
9 9 8 7 7 7 7 6 6 5 5 4 4 5 5 6 6 6 5 6 6 7 7 7 7 7 7 7 7 7 7 8 8 9 9 9 9 8 8 8 8 7 7
9 8 8 7 7 7 6 6 5 4 4 4 4 4 5 6 5 4 4 4 5 6 6 6 7 7 7 7 7 7 7 7 8 8 8 8 9 8 7 7 8 6 6
9 8 7 7 7 6 6 5 4 4 3 3 4 5 5 4 4 5 4 4 4 5 6 6 6 7 7 6 7 7 7 7 8 8 8 8 8 8 7 6 7 6 8
9 7 7 6 6 5 5 4 3 3 2 3 4 4 3 3 5 5 5 5 5 5 5 5 6 6 7 7 6 7 7 7 8 8 8 8 8 7 6 6 7 7 7
8 7 6 6 5 5 4 3 2 2 2 4 3 3 2 3 4 5 6 5 5 5 6 6 6 6 7 7 7 6 7 8 7 7 7 7 7 6 7 6 7 7 7
6 5 5 4 4 4 3 2 2 1 2 3 3 2 2 2 5 5 6 6 6 6 5 5 6 6 6 6 6 7 7 7 7 7 7 7 7 6 6 7 8 7 7
5 4 4 4 4 4 2 2 1 2 2 3 3 1 1 1 4 5 5 5 5 6 6 5 5 6 6 6 6 6 7 7 6 7 7 7 7 6 6 7 7 7 8
5 5 4 3 3 3 2 2 1 1 2 1 1 2 1 1 3 5 4 4 5 5 5 6 6 6 6 6 6 7 6 6 6 7 7 7 6 6 6 6 6 7 7
5 4 3 3 3 3 2 2 2 1 1 1 1 1 2 0 1 3 4 5 5 5 5 5 5 6 6 6 6 6 6 6 7 7 7 6 6 6 6 6 6 6 7
4 4 3 3 2 2 2 2 1 1 0 0 -0 0 2 -0 0 1 1 4 4 5 5 5 5 5 5 5 5 5 6 6 6 6 6 5 5 5 6 6 6 6 6
4 3 3 3 1 1 2 2 1 1 0 -0 -0 0 1 1 0 -0 0 1 1 2 3 4 4 4 4 4 4 5 5 5 6 6 5 6 6 6 6 6 6 6 6
4 3 3 2 0 1 0 0 1 0 0 -0 -1 -0 -0 -0 -0 0 1 0 0 1 1 2 2 3 3 4 4 4 4 3 4 5 6 6 6 6 5 6 6 6 6
4 3 2 1 1 0 0 -0 -0 0 0 -0 -0 -0 -0 0 -0 -1 -1 -1 -1 1 2 2 1 2 3 3 3 3 3 3 4 3 3 3 4 3 3 3 2 3 3
3 3 2 2 0 0 0 0 -0 -0 0 0 -0 -1 -1 -1 -1 -1 -1 -1 -1 1 1 1 2 2 2 2 2 2 3 3 2 3 2 3 3 3 3 3 2 2 1
3 2 0 0 0 0 0 0 -0 -0 -0 -0 -1 -1 -1 -0 -1 -1 -0 0 -1 -1 -0 0 1 1 2 2 2 2 2 1 2 1 2 1 1 2 3 3 3 3 3
2 2 1 0 0 0 0 -0 -0 -1 -0 -0 -1 -1 -1 0 0 1 1 1 1 1 1 1 1 1 1 1 0 0 1 0 1 1 1 1 1 2 2 2 2 1 2
1 0 1 -0 -0 0 -0 -0 -0 -1 -0 -1 -0 -0 0 0 1 1 1 2 2 2 2 2 2 2 2 2 2 2 0 1 -0 0 1 -0 0 1 1 1 1 1 1
-1 -0 -0 -0 -1 -0 -0 -0 -0 -1 -1 -1 -0 1 1 1 1 1 1 1 2 2 2 2 2 2 2 3 2 2 2 2 1 1 1 1 1 0 0 -0 0 0 0
-1 -0 -1 -0 -1 -1 -1 -0 -1 -1 -1 -0 -0 -0 0 1 1 1 1 1 2 2 2 2 2 2 2 2 2 2 2 2 2 2 2 2 1 1 1 1 1 1 -0
-0 -0 -0 -0 -1 -1 -1 -1 -1 -1 -0 0 0 1 1 1 1 1 1 1 1 1 1 1 1 1 1 2 2 2 2 2 2 1 1 1 1 1 1 1 1 1 1
-1 -1 -1 -2 -1 -1 -1 -1 -1 -1 0 0 0 0 1 1 1 1 1 1 1 1 1 1 1 1 1 1 1 1 1 1 1 1 1 1 1 1 0 0 0 -0 -0
-1 -1 -2 -1 -1 -1 -1 -0 -0 -0 -0 -0 -0 -0 -0 -0 -0 0 0 0 0 0 0 0 0 0 0 0 0 0 0 -0 -0 -1 -1 -1 -1 -1 -1 -1 -1 -1 -1

GFSGL_700_temp_141.txt.gz
Temp
10 9 9 9 9 9 9 9 9 9 9 9 9 8 8 8 8 8 7 7 7 8 8 7 8 8 9 9 9 8 8 8 8 9 8 8 7 8 8 8 10 10 9
10 10 9 9 9 9 9 9 8 8 8 8 8 7 6 6 5 5 6 6 6 6 6 6 7 7 8 8 8 8 9 8 8 8 8 8 8 8 8 8 9 9 9
10 9 9 9 9 9 9 9 8 8 8 7 7 5 5 5 5 6 6 6 6 7 7 6 7 7 7 8 8 8 8 8 8 9 9 9 8 7 8 8 9 10 9
10 9 9 9 9 10 9 8 8 8 7 6 5 5 5 5 5 5 6 7 7 7 7 6 6 6 7 7 8 8 8 7 7 7 8 8 8 8 8 7 8 10 9
9 9 9 9 9 9 8 8 7 7 5 6 5 5 4 4 5 5 6 7 6 6 6 5 5 6 6 7 7 8 7 7 6 7 8 8 8 9 9 8 10 9 8
9 9 9 9 9 8 8 7 7 6 5 5 4 4 4 4 5 4 4 5 6 6 6 5 4 5 5 6 7 8 7 7 6 7 7 7 7 9 9 9 9 8 8
8 9 9 9 9 8 7 7 6 5 4 4 3 3 4 4 4 4 4 5 5 6 5 4 5 5 6 6 7 7 7 7 6 7 7 7 7 8 8 9 8 8 8
8 9 9 9 9 8 7 6 5 5 3 3 3 4 3 2 3 2 5 5 5 5 5 5 5 5 5 6 6 7 7 7 7 7 7 8 7 7 7 8 8 8 8
8 8 8 8 8 7 6 5 5 4 3 3 3 3 3 3 2 2 5 5 5 5 5 5 5 5 5 6 6 6 6 7 7 7 8 8 8 8 7 8 8 7 8
8 8 8 8 7 6 5 5 4 3 3 2 3 3 2 2 2 2 4 5 5 5 5 5 5 5 5 6 6 6 6 6 6 7 7 7 8 8 7 7 7 7 8
7 7 7 6 6 5 4 4 3 3 3 2 1 2 2 2 3 2 4 5 4 4 4 5 5 5 6 6 6 6 6 6 6 6 7 7 7 7 8 7 7 7 7
7 7 6 6 5 4 4 4 3 3 2 0 -0 2 2 2 2 1 2 4 4 5 4 5 6 6 6 6 6 6 6 6 6 6 6 7 7 7 7 7 7 6 6
6 6 6 5 5 4 4 4 3 2 1 -0 -0 1 1 1 1 1 1 2 2 4 5 5 5 6 6 5 6 6 6 6 6 6 6 6 6 6 7 7 6 6 6
5 5 5 5 4 4 3 2 1 1 1 0 0 1 -0 1 2 2 0 0 0 1 2 3 5 5 5 5 6 5 6 6 6 6 6 6 6 6 6 6 6 6 6
4 4 4 4 4 2 2 1 1 2 1 0 0 1 0 0 2 1 0 0 0 -0 1 1 3 3 3 4 4 4 4 5 5 5 6 6 6 6 6 5 5 5 6
3 2 2 2 2 2 2 1 1 1 1 0 0 1 1 1 0 0 -0 0 0 0 1 1 1 2 2 2 3 3 3 3 4 4 5 5 5 5 6 5 5 5 5
2 3 3 2 2 2 2 1 1 1 1 1 0 1 1 1 1 2 1 1 0 -0 1 1 1 1 1 2 2 3 3 2 3 3 3 3 2 2 3 2 3 3 4
4 2 3 3 2 2 2 1 1 2 1 0 0 0 0 -0 -0 0 1 1 1 0 1 1 1 2 2 2 2 2 2 2 2 2 2 2 2 2 1 1 2 2 2
2 2 2 2 2 1 1 0 1 1 1 -0 -0 -0 0 1 1 1 1 2 2 2 2 2 2 2 2 2 2 2 1 2 1 1 2 2 2 1 1 2 2 1 2
2 2 2 2 1 1 1 2 1 0 0 -0 -0 -0 -1 -1 1 2 2 2 2 2 2 3 2 2 2 2 2 2 1 1 1 1 1 1 1 1 1 1 1 1 1
2 1 1 1 1 1 1 0 1 0 1 0 -0 -0 -0 0 1 2 2 2 2 2 2 2 3 3 3 3 3 3 2 2 2 2 2 1 2 1 1 1 1 1 1
1 1 2 1 0 -0 1 -0 0 0 -1 -0 -1 0 1 1 1 1 1 1 2 2 2 2 2 2 3 3 3 3 2 3 3 2 2 2 2 2 1 1 1 1 1
1 0 0 0 0 0 -0 -1 0 0 -0 -1 -0 0 1 1 1 1 1 1 1 1 2 2 2 2 2 2 2 2 2 2 2 2 2 2 2 2 2 2 2 2 2
1 1 0 -0 -0 0 -0 -1 -1 -1 -1 -0 -0 0 1 1 1 1 1 1 1 1 1 1 1 1 1 1 2 1 1 2 2 2 2 2 2 2 2 2 2 1 1
1 -0 -0 -0 -1 -1 -2 -2 -2 -2 -1 0 -0 0 0 0 1 1 1 1 1 1 1 1 1 1 1 1 1 1 1 1 1 1 1 1 1 1 1 1 1 1 1
0 -0 -0 -1 -2 -1 -1 -1 -1 -0 -0 -0 -0 -0 -0 -0 -0 -0 -0 -0 -0 -0 -0 -0 0 0 1 0 0 1 1 1 0 0 0 -0 -0 -0 -0 -1 -1 -1 -1

GFSGL_700_temp_144.txt.gz
Temp
12 11 10 10 10 10 10 10 10 10 10 10 9 9 8 8 6 6 6 5 6 6 7 7 7 7 7 8 8 7 7 7 7 8 8 10 8 9 9 8 8 8 9
11 11 10 10 9 10 10 9 9 10 10 9 9 8 7 6 5 5 5 5 5 6 7 7 7 7 8 8 8 7 7 7 7 8 8 8 9 8 8 8 9 8 8
12 11 10 10 9 9 9 9 10 10 9 8 8 6 6 6 5 5 5 5 5 6 6 7 8 8 9 8 8 8 6 7 7 7 8 8 7 7 7 7 7 7 10
11 10 10 9 9 9 9 9 10 9 8 8 6 6 5 5 5 4 5 5 5 5 6 7 7 7 8 7 7 7 6 7 7 6 7 7 8 8 8 8 8 9 8
11 10 9 9 9 9 9 9 9 9 8 7 6 6 5 5 4 4 4 4 5 7 7 7 6 5 6 5 5 5 6 6 6 7 7 7 7 8 8 8 8 9 8
9 9 8 8 9 9 9 9 9 9 7 7 6 5 5 4 4 3 4 4 4 5 6 7 6 6 5 5 4 5 6 6 6 6 7 7 7 7 7 8 9 8 9
9 8 8 8 8 9 9 9 9 8 7 6 5 4 5 4 4 4 4 3 3 5 6 5 5 6 5 5 5 5 6 6 6 6 7 7 7 7 7 7 9 8 8
8 8 8 8 8 9 9 8 8 7 7 6 5 5 3 4 4 3 4 2 4 5 5 5 6 6 5 5 5 5 5 5 6 6 7 7 7 6 7 7 7 8 8
7 7 8 8 8 8 8 8 7 6 6 5 5 4 4 4 3 4 3 2 3 4 4 5 5 6 5 5 5 5 5 6 6 7 7 7 7 6 6 7 8 8 9
7 7 7 8 8 8 7 7 6 6 5 5 4 4 4 3 2 1 1 1 2 4 4 5 4 5 5 5 5 6 6 6 6 7 7 6 6 6 7 7 7 7 8
7 7 7 7 7 7 6 6 6 5 5 4 4 3 2 2 3 2 1 1 1 2 4 4 5 5 5 5 6 6 6 6 6 6 6 6 6 6 7 7 7 7 8
7 7 6 7 7 6 6 6 5 4 4 2 2 2 2 2 3 3 3 1 1 1 2 4 5 5 5 5 5 6 6 6 6 6 5 6 6 6 7 7 7 7 7
6 6 5 6 6 5 6 5 4 4 2 2 1 2 2 2 3 2 3 2 1 1 0 2 4 5 4 5 5 5 5 6 6 6 6 6 6 7 7 7 7 7 7
5 4 3 2 4 5 5 4 2 1 1 2 2 2 2 2 2 2 3 2 1 1 1 -0 1 2 3 4 4 5 5 5 5 6 6 6 6 6 6 6 6 6 6
4 3 4 3 3 4 3 3 2 1 2 1 2 1 2 2 3 2 2 0 1 1 1 1 1 1 2 2 2 3 3 4 5 5 5 5 5 5 6 6 6 6 5
4 3 1 2 3 2 2 2 2 1 2 1 1 1 1 2 3 3 2 2 1 1 1 1 2 1 2 2 2 2 2 3 3 3 3 3 4 4 4 4 4 5 5
4 3 5 4 3 3 3 2 2 1 2 1 1 1 1 2 2 2 3 2 2 1 1 1 1 1 1 1 2 2 2 2 2 2 2 3 3 3 2 3 3 2 3
4 4 5 3 3 3 2 2 1 1 2 1 1 1 1 3 3 2 3 3 2 2 1 2 2 1 1 1 2 2 1 2 2 2 2 2 2 2 2 1 1 2 2
4 3 3 2 2 2 1 1 1 2 1 0 1 0 0 2 4 3 2 3 3 3 3 3 2 2 2 2 2 2 2 2 2 2 1 2 1 1 2 2 2 2 1
3 2 3 3 2 2 1 2 1 1 1 0 -0 -0 -1 0 1 2 3 3 3 3 3 2 2 2 2 2 2 2 2 2 2 2 2 2 2 2 1 1 1 2 2
2 2 3 4 1 1 1 2 1 1 -0 -0 1 0 1 1 2 2 2 3 2 2 2 3 2 3 3 2 2 2 2 2 3 3 3 2 2 2 2 2 1 1 2
2 2 2 2 2 1 1 1 1 1 1 0 -0 -1 1 1 2 1 2 2 2 2 2 2 2 2 3 2 2 2 2 3 2 3 2 2 3 3 2 2 2 2 2
1 1 1 1 1 1 0 1 1 -1 -0 -0 -1 -0 1 1 2 1 1 1 1 1 1 2 2 2 2 2 2 2 2 2 2 2 2 2 2 2 2 2 2 2 2
1 1 0 -0 0 -0 -0 0 -0 -1 -1 -1 -1 0 1 1 1 1 1 1 1 1 1 1 2 1 1 2 2 2 2 2 2 2 2 2 2 2 2 2 2 2 2
1 1 -0 0 -0 -0 -1 -1 -2 -1 -0 0 0 0 0 1 1 1 0 0 0 0 1 1 1 2 1 1 1 1 1 2 2 2 2 2 2 2 2 2 2 1 1
0 -1 -0 -1 -0 -1 -1 -1 -1 0 -0 -0 0 -0 0 0 0 0 0 -0 -0 0 0 1 0 1 1 1 1 1 1 1 1 1 1 1 1 1 -0 -0 -0 -1 -1

GFSGL_700_temp_147.txt.gz
Temp
13 11 11 11 11 10 10 9 9 9 10 10 10 10 10 9 8 7 6 6 6 6 6 6 6 6 6 6 6 6 6 6 6 9 9 9 8 8 8 7 7 7 8
13 11 11 11 10 10 9 9 9 9 9 9 10 10 9 8 7 6 6 6 6 7 6 6 6 7 7 7 7 7 6 6 6 8 8 9 9 8 8 7 8 7 8
13 11 11 11 10 10 9 8 8 9 9 9 10 9 8 7 7 6 6 6 6 6 6 6 6 7 8 7 7 8 8 8 7 7 8 8 9 8 8 8 8 7 7
12 12 11 10 10 9 8 8 8 9 9 9 9 8 7 7 6 5 5 6 5 5 5 6 7 7 7 7 7 6 7 7 8 8 9 8 8 8 7 7 7 8 8
12 11 11 9 9 8 8 8 8 9 9 9 9 8 7 6 6 5 5 5 4 5 6 6 5 5 5 6 6 6 5 5 5 5 6 7 7 7 8 7 7 7 8
11 11 10 9 8 8 8 8 8 9 9 8 8 7 7 6 5 5 5 4 5 5 5 6 5 5 5 5 5 5 5 5 5 4 5 6 7 6 7 7 7 6 7
9 9 8 8 7 8 8 8 8 8 8 8 8 7 6 5 5 5 4 4 2 2 3 5 6 5 5 5 5 5 5 5 4 4 5 6 6 7 7 6 6 7 7
9 9 7 7 7 8 8 8 8 8 8 7 6 6 5 5 4 4 4 3 2 2 2 4 4 5 5 4 5 5 5 5 4 4 6 6 6 6 6 7 6 6 7
9 8 7 7 7 7 7 8 7 7 7 7 6 6 4 5 3 3 4 3 1 2 2 4 4 4 4 5 5 5 5 5 5 5 6 6 6 6 6 6 6 6 7
9 7 7 7 7 7 7 7 6 6 6 6 6 5 4 3 2 3 4 3 1 2 1 3 4 4 5 5 5 5 5 5 6 6 6 6 6 6 6 6 6 6 7
7 7 7 7 6 6 6 6 5 4 5 4 4 5 3 2 2 3 4 2 1 1 2 2 3 4 5 5 5 5 5 5 6 6 5 6 5 6 5 5 6 6 7
7 7 6 6 5 5 6 5 5 4 4 3 3 3 2 2 2 2 3 1 1 1 1 1 1 3 4 4 5 5 5 5 5 5 5 5 5 6 6 5 5 6 6
6 6 5 5 4 4 3 4 4 4 3 3 2 2 2 2 2 2 3 1 2 2 0 1 1 1 2 4 4 4 5 5 5 4 4 4 5 5 5 5 6 6 6
4 5 5 3 3 2 3 3 3 3 3 1 1 1 2 2 2 3 3 2 2 2 1 1 1 1 1 2 3 4 4 5 5 5 5 5 5 5 5 6 5 6 6
4 3 4 3 2 3 3 2 2 2 2 2 1 1 2 2 3 3 4 2 3 2 1 1 1 1 2 1 1 2 3 3 4 4 4 4 5 5 5 5 5 5 5
4 5 4 4 4 5 3 3 2 2 2 1 1 2 2 2 2 3 3 1 2 3 2 1 1 1 1 1 1 2 2 2 2 3 3 3 3 3 3 3 4 4 4
5 4 3 4 5 4 3 2 2 2 2 1 1 1 2 2 2 2 3 2 2 3 3 2 1 0 1 1 2 2 2 1 1 2 2 2 1 2 2 2 2 2 3
4 4 3 3 3 3 2 2 2 2 1 1 1 1 2 2 3 2 2 1 2 3 3 3 3 2 2 2 1 1 1 1 1 2 2 2 1 2 1 2 2 2 3
3 2 3 3 2 2 2 2 2 2 1 1 1 2 2 1 3 3 2 2 3 3 3 3 3 2 2 2 2 1 1 2 2 2 2 1 2 1 1 1 1 2 2
3 2 2 2 2 2 2 1 2 2 1 1 0 1 0 1 2 2 2 2 2 3 3 3 3 2 3 2 2 2 2 2 2 2 2 2 2 2 2 2 3 3 3
2 1 1 2 2 2 2 2 2 1 0 0 0 -0 0 1 1 2 2 2 2 3 2 2 2 2 2 2 2 2 2 2 2 2 2 2 2 2 2 3 3 3 2
4 1 1 1 2 2 1 2 1 0 1 0 -0 0 1 1 1 1 1 1 2 2 2 2 2 2 2 2 2 2 2 2 2 2 2 2 2 2 2 2 2 2 3
2 2 2 2 1 1 0 0 -0 0 0 -0 -0 -0 1 0 1 1 1 1 1 2 1 1 1 2 1 1 2 2 2 2 2 2 2 2 2 3 3 3 3 3 3
2 2 2 1 -0 0 0 0 -0 -0 -0 -1 -1 -1 0 0 1 1 0 1 1 1 1 1 1 0 1 1 1 1 2 2 2 2 2 3 3 2 3 3 3 3 3
1 2 1 0 -0 -0 -0 -1 -1 -1 -0 -1 -1 -1 -0 0 1 0 -0 0 0 1 1 1 1 0 1 0 1 1 2 2 2 2 2 2 2 2 2 2 2 2 2
0 1 0 -0 -0 -1 -1 -1 -1 -2 -2 -2 -1 -0 0 -0 -0 -0 -1 -0 -0 0 1 1 1 1 1 1 1 1 1 1 1 1 1 1 1 1 1 1 0 0 0